www.pogodaiklimat.ru

Погода и климат >> Архив погоды >> Индия >> Гуджарат >> Раджкот


ПОГОДА в Раджкоте

  • Прогноз погоды в Раджкоте
  • Монитор погоды в Раджкоте

АРХИВ ПОГОДЫ в Раджкоте

Время (UTC), дата Ветер
(напр.,м/с)
 
Видим.   Явления Облачность Т
(С)
Тd
(С)
f
(%)
Тe
(С)
Тes
(С)
Комфортность P
(гПа)
Po
(гПа)
Тmin
(С)
Tmax
(С)
R
(мм)
R24
(мм)
S
(см)
15 10.09 штиль 0 4000 м {дождь} 9/5 360 м
[St Ac trans]
+27.6 +27.3 98 +44 +44 опасность
перегрева
1003.6 988.0 3
18 10.09 Ю 3 4000 м слаб. дождь 9/4 360 м
[St Ac trans]
+26.0 +25.4 97 +38 +38 очень
душно
1004.6 988.9 3
21 10.09 Ю 2 4000 м {дождь} 9/4 360 м
[St Ac trans]
+25.8 +25.2 96 +37 +37 очень
душно
1003.3 987.6 3
00 11.09 ЮЗ 2 4000 м {дождь} 9/4 450 м
[St Ac trans]
+25.8 +25.5 98 +38 +38 очень
душно
1003.9 988.2 4
03 11.09 ЮЗ 2 4000 м мгла 9/4 600 м
[Sc Ac As]
+26.8 +26.0 95 +40 +41 очень
душно
1005.3 989.6 +24.7 4
06 11.09 З 3 4000 м 8/4 600 м
[Sc Ac trans]
+28.8 +26.9 89 +45 +51 опасность
перегрева
1005.8 990.2
09 11.09 Ю 3 4000 м слаб. морось 9/5 360 м
[Frnb Ac trans]
+28.0 +25.7 87 +41 +45 опасность
перегрева
1004.3 988.7 0.0
12 11.09 З 3 4000 м гроза, ливневой дождь 10/5 360 м
[Cb cap As op]
+26.4 +25.0 92 +38 +38 очень
душно
1004.8 989.1 +30.0 1
15 11.09 ЮЗ 3 4000 м {гроза, дождь} 8/6 600 м
[Cu Sc Ac trans]
+26.0 +24.9 94 +37 +37 очень
душно
1005.8 990.1 1
18 11.09 Ю 3 4000 м {гроза, дождь} 9/5 600 м
[Cu Sc Ac trans]
+25.8 +24.6 93 +36 +36 очень
душно
1007.0 991.2 1
21 11.09 Ю 3 4000 м 6/5 600 м
[Sc Ac trans]
+25.6 +24.7 95 +36 +36 очень
душно
1005.4 989.7 1
00 12.09 ЮЗ 3 4000 м 8/5 600 м
[Sc Ac trans]
+25.6 +24.7 95 +36 +36 очень
душно
1005.7 989.9 1
03 12.09 ЮЗ 3 4000 м 9/4 600 м
[Sc Ac trans]
+26.4 +24.4 89 +37 +38 очень
душно
1007.2 991.5 +24.2 1
06 12.09 ЮЗ 3 4000 м 9/5 600 м
[Sc Ac trans]
+28.0 +24.6 82 +40 +43 очень
душно
1007.8 992.1
09 12.09 ЮЗ 4 4000 м 8/5 600 м
[Cu Sc Ac trans]
+31.4 +26.1 74 +47 +51 опасность
перегрева
1005.0 989.6
12 12.09 З 4 4000 м 8/5 600 м
[Cu Sc Ac trans]
+29.0 +25.0 79 +42 +42 опасность
перегрева
1004.8 989.2 +32.0
15 12.09 ЮЗ 3 4000 м 8/4 600 м
[Sc Ac trans]
+27.0 +24.7 87 +38 +38 очень
душно
1006.4 990.7
18 12.09 ЮЗ 3 4000 м 8/3 600 м
[Sc Ac trans]
+26.8 +24.8 89 +38 +38 очень
душно
1007.3 991.6
21 12.09 З 3 4000 м 8/3 600 м
[Sc Ac trans]
+26.4 +24.7 90 +37 +37 очень
душно
1006.4 990.7
00 13.09 ЮЗ 3 4000 м 5/1 600 м
[Sc Ac trans]
+26.0 +24.6 92 +37 +37 очень
душно
1006.4 990.7
03 13.09 ЮЗ 5 4000 м 9/4 600 м
[Sc Ac trans]
+26.6 +25.2 92 +38 +39 очень
душно
1006.8 991.1 +24.7
06 13.09 З 7 4000 м 9/5 600 м
[Cu Sc Ac trans]
+29.0 +24.4 76 +41 +42 опасность
перегрева
1008.1 992.5
09 13.09 ЮЗ 5 4000 м 9/6 600 м
[Cu Sc Ac trans]
+30.2 +24.5 72 +43 +45 опасность
перегрева
1005.9 990.4
12 13.09 З 4 4000 м {морось} 10/6 600 м
[Sc Ac As]
+28.8 +25.1 80 +42 +42 опасность
перегрева
1005.5 989.9 +30.6 0.3
15 13.09 ЮЗ 3 4000 м 9/5 600 м
[Cu Sc Ac trans]
+27.8 +24.9 84 +40 +40 очень
душно
1006.7 991.0 0.3
18 13.09 ЮЗ 3 4000 м 8/5 600 м
[Sc Ac trans]
+27.4 +24.5 84 +39 +39 очень
душно
1006.9 991.2 0.3
21 13.09 З 5 4000 м 8/4 600 м
[Sc Ac trans]
+28.8 +25.2 81 +42 +42 опасность
перегрева
1005.5 989.9 0.3
00 14.09 З 3 4000 м 8/4 600 м
[Sc Ac trans]
+26.4 +25.0 92 +38 +38 очень
душно
1005.8 990.1 0.3
03 14.09 ЮЗ 4 4000 м 10/6 360 м
[St As op]
+26.8 +25.1 90 +39 +39 очень
душно
1007.6 991.9 +25.1 0.3
06 14.09 З 5 4000 м 8/5 600 м
[Sc Ac trans]
+29.4 +25.1 78 +43 +46 опасность
перегрева
1008.2 992.6
09 14.09 З 4 4000 м 9/5 600 м
[Sc diur, vesp Ac trans]
+30.0 +25.8 78 +45 +47 опасность
перегрева
1006.4 990.9
12 14.09 З 5 4000 м 8/5 600 м
[Sc diur, vesp Ac trans]
+29.6 +25.4 78 +43 +44 опасность
перегрева
1005.9 990.4 +31.0
15 14.09 З 4 4000 м 8/5 600 м
[Sc diur, vesp Ac trans]
+28.0 +25.4 86 +41 +41 опасность
перегрева
1007.3 991.6
18 14.09 З 3 4000 м 8/4 600 м
[Sc Ac trans]
+27.0 +24.4 86 +38 +38 очень
душно
1007.5 991.8
21 14.09 ЮЗ 4 4000 м 6/0 2000 м
[Ac trans]
+26.4 +23.5 84 +36 +36 очень
душно
1006.5 990.8
00 15.09 ЮЗ 4 4000 м 8/0 2000 м
[Ac trans]
+26.2 +25.1 94 +38 +38 очень
душно
1006.9 991.2
03 15.09 З 4 4000 м 9/3 600 м
[Sc Ac trans]
+26.8 +24.8 89 +38 +39 очень
душно
1008.6 992.9 +25.0
06 15.09 З 4 4000 м 9/4 600 м
[Sc Ac trans]
+29.8 +24.1 72 +42 +45 опасность
перегрева
1009.3 993.7
09 15.09 З 5 4000 м 8/4 600 м
[Sc diur, vesp Ac trans]
+31.6 +24.2 65 +44 +47 опасность
перегрева
1007.1 991.6
12 15.09 З 3 4000 м 9/3 600 м
[Sc Ac trans]
+29.8 +24.4 73 +42 +43 опасность
перегрева
1006.3 990.8 +32.5
15 15.09 З 3 4000 м 5/3 600 м
[Sc Ac trans]
+28.2 +24.5 80 +40 +40 очень
душно
1006.9 991.3
18 15.09 ЮЗ 5 4000 м 8/4 600 м
[Sc Ac trans]
+27.6 +24.7 84 +39 +39 очень
душно
1007.6 991.9
21 15.09 ЮЗ 3 4000 м 6/4 600 м
[Sc Ac trans]
+26.2 +24.8 92 +37 +37 очень
душно
1006.6 990.9
00 16.09 З 3 4000 м 8/5 600 м
[Sc Ac trans]
+26.0 +24.9 94 +37 +37 очень
душно
1006.9 991.2
03 16.09 З 4 4000 м 6/3 600 м
[Sc Ac trans]
+26.6 +24.9 90 +38 +39 очень
душно
1007.8 992.1 +24.5
06 16.09 З 5 4000 м 6/4 600 м
[Sc diur, vesp Ac trans]
+30.4 +24.4 70 +42 +47 опасность
перегрева
1008.3 992.8
09 16.09 З 6 4000 м 6/6 600 м
[Sc diur, vesp]
+32.6 +24.0 61 +45 +47 опасность
перегрева
1005.5 990.1
12 16.09 З 6 4000 м 6/3 600 м
[Sc Ci fib]
+31.4 +23.6 63 +42 +43 опасность
перегрева
1004.4 989.0 +33.3
15 16.09 З 4 4000 м 4/1 600 м
[Sc Ac trans]
+28.0 +24.3 80 +39 +39 очень
душно
1005.5 989.9
18 16.09 З 3 4000 м 4/1 600 м
[Sc Ac trans]
+27.0 +24.7 87 +38 +38 очень
душно
1006.7 991.0
21 16.09 ЮЗ 3 4000 м 4/3 600 м
[Sc Ac trans]
+26.4 +25.0 92 +38 +38 очень
душно
1006.0 990.3
00 17.09 ЮЗ 3 4000 м 3/3 600 м
[Sc Ac trans]
+26.0 +24.9 94 +37 +37 очень
душно
1005.4 989.7
03 17.09 З 5 4000 м 5/5 600 м
[Sc]
+27.4 +24.8 86 +39 +40 очень
душно
1007.3 991.6 +25.0
06 17.09 З 4 4000 м 5/5 600 м
[Cu Sc]
+30.8 +24.2 68 +43 +48 опасность
перегрева
1007.4 991.9
09 17.09 З 4 4000 м 6/6 600 м
[Cu Sc]
+32.8 +23.3 57 +43 +47 опасность
перегрева
1005.0 989.6
12 17.09 З 5 4000 м 5/5 600 м
[Cu Sc]
+32.4 +25.1 65 +46 +47 опасность
перегрева
1004.0 988.6 +33.9

 

Местоположение метеостанции Раджкот (Гуджарат, Индия): широта 22.30 долгота 70.78 высота над уровнем моря 138 м.

В архиве по умолчанию представлена погода в Раджкоте за последнюю неделю. Архивные данные за месяц целиком и за предыдущие месяцы, начиная с января 2011 года, Вы можете получить, выбрав интересующий диапазон дат из раскрывающегося списка и нажав кнопку "Ввод!".


*Определитесь, кто Вы:
робот инопланетянин человек

Внимание! Время в таблицах - всемирное. Для получения местного времени необходимо прибавить поправку, которая равна 5.5 ч.

Смотрите также архив погоды в соседних городах и на ближайших метеорологических станциях:

Погода в Амрели (Гуджарат, Индия) (90 км)
Погода в Нью-Кандле (Гуджарат, Индия) (97 км)
Погода в Сурендранагаре (Гуджарат, Индия) (97 км)
Погода в Кандле (Гуджарат, Индия) (114 км)
Погода в Порбандаре (Гуджарат, Индия) (135 км)
Погода в Бхудже (Гуджарат, Индия) (155 км)
Погода в Бхавнагаре (Гуджарат, Индия) (159 км)
Погода в Веравале (Гуджарат, Индия) (161 км)
Погода в Мандви (Гуджарат, Индия) (166 км)
Погода в Махьюве (Гуджарат, Индия) (171 км)

Пояснения к столбцам:

Ветер - указаны скорость ветра в м/с - средняя за 10 мин, порывы в срок и между сроками (в фигурных скобках) и направление, откуда дует ветер: С - северный, СВ - северо-восточный, В - восточный, ЮВ - юго-восточный, Ю - южный, ЮЗ - юго-западный, З - западный, СЗ - северо-западный.
Видимость - горизонтальная дальность видимости в метрах или километрах. При видимости от 1 до 10 км при отсутствии осадков обычно наблюдается дымка, при ухудшении видимости до 1 км и менее - туман. В сухую погоду видимость может ухудшаться дымом, пылью или мглою.
Явления - указаны атмосферные явления, наблюдавшиеся в срок или в последний час перед сроком; фигурными скобками обозначены явления, наблюдавшиеся между сроками (за 1-3 часа до срока); квадратными скобками обозначены град или гололедные отложения с указанием их диаметра в мм.
Облачность - указаны через наклонную черту общая и нижняя облачность в баллах и высота нижней границы облаков в метрах; квадратными скобками обозначены формы облаков: Ci - перистые, Cs - перисто-слоистые, Cc - перисто-кучевые, Ac - высококучевые, As - высокослоистые, Sc - слоисто-кучевые, Ns - слоисто-дождевые, Cu - кучевые, Cb - кучево-дождевые. Подробнее классификацию облаков см. в Атласе облаков (PDF).
T - Температура воздуха - температура, измеренная на высоте 2 м над землей.
Td - Температура точки росы - температура, при понижении до которой содержащийся в воздухе водяной пар достигнет насыщения.
f - Относительная влажность воздуха - влажноcть воздуха, измеренная на высоте 2 м над землей.
Te - Эффективная температура - температура, которую ощущает одетый по сезону человек в тени. Характеристика душности погоды. При расчете учитывается влияние влажности воздуха и скорости ветра на теплоощущения человека.
Tes - Эффективная температура на солнце - температура, которую ощущает человек, с поправкой на солнечный нагрев. Характеристика знойности погоды. Зависит от высоты солнца над горизонтом, облачности и скорости ветра. Ночью, в пасмурную погоду, а также при ветре 12 м/с и более поправка равна нулю.
P - Атмосферное давление - приведенное к уровню моря атмосферное давление.
Po - Атмосферное давление - измеренное на уровне метеостанции атмосферное давление.
Tmin - Минимальная температура - минимум температуры воздуха на высоте 2 м над землей.
Tmax - Максимальная температура - максимум температуры воздуха на высоте 2 м над землей.
R - Количество осадков - Количество выпавших осадков за период времени, мм. При наведении курсора мыши на число - период времени, за который выпало указанное количество осадков.
R24 - Количество осадков - Количество выпавших осадков за 24 часа, мм.
S - Снежный покров - Высота снежного покрова, см. При наведении курсора мыши на число - состояние снежного покрова и степень покрытия местности в баллах.